TimeEDT,TemperatureF,Dew PointF,Humidity,Sea Level PressureIn,VisibilityMPH,Wind Direction,Wind SpeedMPH,Gust SpeedMPH,PrecipitationIn,Events,Conditions,WindDirDegrees,DateUTC
12:08 AM,69.8,68.0,94,30.16,10.0,Calm,Calm,-,N/A,,Clear,0,2013-07-09 04:08:00
12:28 AM,69.8,68.0,94,30.16,10.0,Calm,Calm,-,N/A,,Clear,0,2013-07-09 04:28:00
12:48 AM,69.8,66.2,88,30.16,7.0,Calm,Calm,-,N/A,,Clear,0,2013-07-09 04:48:00
1:08 AM,69.8,68.0,94,30.16,10.0,Calm,Calm,-,N/A,,Clear,0,2013-07-09 05:08:00
1:28 AM,69.8,68.0,94,30.15,7.0,Calm,Calm,-,N/A,,Clear,0,2013-07-09 05:28:00
1:48 AM,69.8,66.2,88,30.15,7.0,Calm,Calm,-,N/A,,Clear,0,2013-07-09 05:48:00
2:08 AM,69.8,66.2,88,30.15,7.0,Calm,Calm,-,N/A,,Clear,0,2013-07-09 06:08:00
2:28 AM,69.8,68.0,94,30.15,7.0,Calm,Calm,-,N/A,,Clear,0,2013-07-09 06:28:00
2:48 AM,69.8,66.2,88,30.15,5.0,Calm,Calm,-,N/A,,Clear,0,2013-07-09 06:48:00
3:08 AM,69.8,68.0,94,30.14,7.0,Calm,Calm,-,N/A,,Scattered Clouds,0,2013-07-09 07:08:00
3:28 AM,68.0,66.2,94,30.15,5.0,Calm,Calm,-,N/A,,Scattered Clouds,0,2013-07-09 07:28:00
3:48 AM,68.0,66.2,94,30.15,7.0,Calm,Calm,-,N/A,,Scattered Clouds,0,2013-07-09 07:48:00
4:08 AM,69.8,68.0,94,30.15,7.0,Calm,Calm,-,N/A,,Scattered Clouds,0,2013-07-09 08:08:00
4:28 AM,68.0,66.2,94,30.15,5.0,Calm,Calm,-,N/A,,Scattered Clouds,0,2013-07-09 08:28:00
4:48 AM,68.0,68.0,100,30.15,7.0,Calm,Calm,-,N/A,,Scattered Clouds,0,2013-07-09 08:48:00
5:08 AM,69.8,68.0,94,30.15,5.0,Calm,Calm,-,N/A,,Scattered Clouds,0,2013-07-09 09:08:00
5:28 AM,69.8,68.0,94,30.15,7.0,NNE,3.5,-,N/A,,Mostly Cloudy,30,2013-07-09 09:28:00
5:48 AM,68.0,66.2,94,30.15,5.0,Calm,Calm,-,N/A,,Scattered Clouds,0,2013-07-09 09:48:00
6:09 AM,69.8,68.0,94,30.16,7.0,Calm,Calm,-,N/A,,Mostly Cloudy,0,2013-07-09 10:09:00
6:29 AM,68.0,68.0,100,30.16,3.0,Calm,Calm,-,N/A,,Unknown,0,2013-07-09 10:29:00
6:49 AM,68.0,68.0,100,30.16,3.0,Calm,Calm,-,N/A,,Unknown,0,2013-07-09 10:49:00
7:09 AM,69.8,68.0,94,30.16,3.0,Calm,Calm,-,N/A,,Unknown,0,2013-07-09 11:09:00
7:29 AM,68.0,68.0,100,30.17,2.5,Calm,Calm,-,N/A,,Overcast,0,2013-07-09 11:29:00
7:49 AM,68.0,68.0,100,30.16,2.5,Calm,Calm,-,N/A,,Overcast,0,2013-07-09 11:49:00
8:09 AM,69.8,68.0,94,30.16,4.0,Calm,Calm,-,N/A,,Mostly Cloudy,0,2013-07-09 12:09:00
8:29 AM,69.8,68.0,94,30.16,4.0,Calm,Calm,-,N/A,,Mostly Cloudy,0,2013-07-09 12:29:00
8:49 AM,69.8,68.0,94,30.16,5.0,Calm,Calm,-,N/A,,Overcast,0,2013-07-09 12:49:00
9:09 AM,69.8,68.0,94,30.16,5.0,Calm,Calm,-,N/A,,Mostly Cloudy,0,2013-07-09 13:09:00
9:29 AM,69.8,68.0,94,30.16,4.0,Calm,Calm,-,N/A,,Scattered Clouds,0,2013-07-09 13:29:00
9:49 AM,69.8,68.0,94,30.15,3.0,Calm,Calm,-,N/A,,Overcast,0,2013-07-09 13:49:00
10:09 AM,71.6,69.8,94,30.16,2.5,Calm,Calm,-,N/A,,Overcast,0,2013-07-09 14:09:00
10:29 AM,69.8,68.0,94,30.16,3.0,SE,3.5,-,N/A,,Overcast,130,2013-07-09 14:29:00
10:49 AM,69.8,68.0,94,30.16,5.0,Calm,Calm,-,N/A,,Mostly Cloudy,0,2013-07-09 14:49:00
11:09 AM,71.6,68.0,88,30.16,5.0,Calm,Calm,-,N/A,,Mostly Cloudy,0,2013-07-09 15:09:00
11:29 AM,71.6,69.8,94,30.15,5.0,Calm,Calm,-,N/A,,Mostly Cloudy,0,2013-07-09 15:29:00
11:49 AM,73.4,69.8,88,30.15,7.0,SSE,3.5,-,N/A,,Scattered Clouds,160,2013-07-09 15:49:00
12:09 PM,75.2,68.0,78,30.15,7.0,SSE,4.6,-,N/A,,Scattered Clouds,160,2013-07-09 16:09:00
12:29 PM,77.0,69.8,78,30.14,7.0,SE,3.5,-,N/A,,Clear,140,2013-07-09 16:29:00
12:49 PM,77.0,69.8,78,30.14,10.0,SSE,5.8,-,N/A,,Clear,150,2013-07-09 16:49:00
1:09 PM,77.0,69.8,78,30.14,7.0,South,5.8,-,N/A,,Mostly Cloudy,170,2013-07-09 17:09:00
1:29 PM,77.0,69.8,78,30.13,10.0,ESE,4.6,-,N/A,,Mostly Cloudy,120,2013-07-09 17:29:00
1:49 PM,78.8,69.8,74,30.13,10.0,Calm,Calm,-,N/A,,Mostly Cloudy,0,2013-07-09 17:49:00
2:09 PM,78.8,69.8,74,30.12,10.0,Calm,Calm,-,N/A,,Scattered Clouds,0,2013-07-09 18:09:00
2:30 PM,80.6,69.8,70,30.12,10.0,SSE,6.9,-,N/A,,Scattered Clouds,150,2013-07-09 18:30:00
2:50 PM,82.4,69.8,66,30.11,10.0,South,5.8,-,N/A,,Clear,180,2013-07-09 18:50:00
3:10 PM,86.0,68.0,55,30.10,10.0,South,6.9,-,N/A,,Clear,170,2013-07-09 19:10:00
3:30 PM,82.4,68.0,62,30.09,10.0,South,3.5,-,N/A,,Mostly Cloudy,170,2013-07-09 19:30:00
3:50 PM,82.4,69.8,66,30.08,10.0,SSE,5.8,-,N/A,,Mostly Cloudy,150,2013-07-09 19:50:00
4:10 PM,82.4,69.8,66,30.07,10.0,SSE,3.5,-,N/A,,Mostly Cloudy,160,2013-07-09 20:10:00
4:30 PM,84.2,69.8,62,30.06,10.0,SSW,10.4,-,N/A,,Mostly Cloudy,210,2013-07-09 20:30:00
4:50 PM,86.0,68.0,55,30.06,10.0,SW,11.5,16.1,N/A,,Mostly Cloudy,220,2013-07-09 20:50:00
5:10 PM,86.0,66.2,51,30.05,10.0,SSW,9.2,17.3,N/A,,Scattered Clouds,210,2013-07-09 21:10:00
5:30 PM,86.0,68.0,55,30.05,10.0,SSW,8.1,-,N/A,,Scattered Clouds,210,2013-07-09 21:30:00
5:50 PM,86.0,68.0,55,30.05,10.0,SSW,5.8,-,N/A,,Scattered Clouds,210,2013-07-09 21:50:00
6:30 PM,86.0,68.0,55,30.04,10.0,SSW,9.2,-,N/A,,Clear,210,2013-07-09 22:30:00
6:50 PM,84.2,68.0,58,30.05,10.0,SSW,5.8,-,N/A,,Scattered Clouds,200,2013-07-09 22:50:00
7:10 PM,82.4,68.0,62,30.05,10.0,South,5.8,-,N/A,,Scattered Clouds,190,2013-07-09 23:10:00
7:30 PM,82.4,68.0,62,30.05,10.0,South,4.6,-,N/A,,Scattered Clouds,190,2013-07-09 23:30:00
7:50 PM,80.6,68.0,65,30.06,10.0,SSW,3.5,-,N/A,,Clear,200,2013-07-09 23:50:00
8:10 PM,80.6,69.8,70,30.05,10.0,SSE,4.6,-,N/A,,Clear,160,2013-07-10 00:10:00
8:30 PM,78.8,69.8,74,30.06,10.0,Calm,Calm,-,N/A,,Clear,0,2013-07-10 00:30:00
8:50 PM,78.8,69.8,74,30.07,10.0,South,6.9,-,N/A,,Clear,190,2013-07-10 00:50:00
9:10 PM,78.8,69.8,74,30.07,10.0,Calm,Calm,-,N/A,,Clear,0,2013-07-10 01:10:00
9:30 PM,77.0,69.8,78,30.08,10.0,Calm,Calm,-,N/A,,Clear,0,2013-07-10 01:30:00
9:50 PM,77.0,69.8,78,30.08,10.0,Calm,Calm,-,N/A,,Clear,0,2013-07-10 01:50:00
10:10 PM,77.0,69.8,78,30.09,10.0,South,3.5,-,N/A,,Scattered Clouds,190,2013-07-10 02:10:00
10:30 PM,78.8,68.0,69,30.08,10.0,NW,10.4,16.1,N/A,,Scattered Clouds,310,2013-07-10 02:30:00
10:50 PM,77.0,66.2,69,30.09,10.0,Calm,Calm,-,N/A,,Scattered Clouds,0,2013-07-10 02:50:00
11:10 PM,75.2,68.0,78,30.08,10.0,Calm,Calm,-,N/A,,Mostly Cloudy,0,2013-07-10 03:10:00
11:51 PM,71.6,68.0,88,30.07,10.0,SSE,5.8,-,N/A,,Clear,150,2013-07-10 03:51:00